Welcome to the New NWS' Forecast!
Most changes are behind the scenes, but click here for differences you might notice.

Regional Weather Roundup (RWR)

Issued by Gray - Portland, ME (GYX)

                            
730 
ASUS41 KGYX 230705
RWRGYX
WEATHER ROUNDUP FOR MAINE AND NEW HAMPSHIRE
NATIONAL WEATHER SERVICE GRAY ME
200 AM EST TUE JAN 23 2018

MEZ002-005-006-010-012-015-018-020-021-024-026-027-029-230800-
MAINE
  
CITY           SKY/WX    TMP DP  RH WIND       PRES   REMARKS
PORTLAND       CLOUDY    22  21  96 N9        30.19F FOG              
SANFORD        MIX PCPN  22  21  96 N12       30.16F FOG     WCI  10  
BAR HARBOR     SNOW      23  21  92 E7        30.27S VSB 1/2          
WISCASSET      FRZ RAIN  22  20  92 VRB3      30.22F FOG              
ROCKLAND       LGT SNOW  25  23  92 NE9       30.22F FOG              
FRYEBURG       CLOUDY    22  22 100 NE7       30.19F FOG              
LEWISTONAUBURN MIX PCPN  19  17  92 N12       30.21F FOG     WCI   7  
AUGUSTA        LGT SNOW  19  16  88 N9        30.21F FOG              
WATERVILLE     LGT SNOW  18  16  92 NE10      30.19F FOG     WCI   6  
BANGOR         LGT SNOW  19  16  88 NE8       30.26F FOG              
GREENVILLE       N/A     14  12  92 SE10      30.11F WCI   1          
MILLINOCKET    SNOW      14  12  92 NE9       30.29F VSB 1/2          
HOULTON        CLOUDY    13   7  77 E5        30.30F                  
PRESQUE ISLE   LGT SNOW  10   6  84 E3        30.32S FOG              
FRENCHVILLE    LGT SNOW   5   1  83 NE6       30.25F FOG              
CARIBOU        LGT SNOW  10   5  80 E3        30.30S VSB 3/4          
$$

NHZ002-005-008-009-011-012-014-230800-
NEW HAMPSHIRE
  
CITY           SKY/WX    TMP DP  RH WIND       PRES   REMARKS
PORTSMOUTH     FRZ DRZL  25  24  94 N5        30.14F FOG              
ROCHESTER      CLOUDY    24  23  96 NE10      30.14F FOG     WCI  14  
NASHUA         FRZ RAIN  29  29 100 N6        30.13F FOG              
MANCHESTER     FRZ DRZL  28  27  96 N6        30.12F VSB 1            
CONCORD        CLOUDY    27  24  89 N7        30.13F FOG              
LACONIA        MIX PCPN  24  23  96 E17       30.12F FOG     WCI  11  
PLYMOUTH       CLOUDY    27  26  96 CALM      30.13F FOG              
BERLIN         CLOUDY    29  23  78 SE14G22   30.06F WCI  18          
WHITEFIELD     CLOUDY    39  30  70 S13G28    29.99F                  
JAFFREY        CLOUDY    28  28 100 VRB5      30.06F FOG              
KEENE          CLOUDY    30  28  92 CALM      30.08F                  
LEBANON        CLOUDY    29  27  92 NE5       30.07F                  
MT WASHINGTON  SNOWSHWR  23  23 100 S43         N/A  VSB 0   WCI   3  
$$

VTZ005-007-008-230800-
VERMONT
  
CITY           SKY/WX    TMP DP  RH WIND       PRES   REMARKS
ST JOHNSBURY     N/A     31  30  96 MISG      30.00F                  
MONTPELIER     CLOUDY    29  28  96 SW6       30.03F                  
BURLINGTON     CLOUDY    36  31  82 SE8       29.91F                  
$$

MAZ007-012-024-CTZ003-RIZ002-NYZ038-NYZ072-230800-
SOUTHERN NEW ENGLAND AND NY
  
CITY           SKY/WX    TMP DP  RH WIND       PRES   REMARKS
BOSTON         DRIZZLE   39  39 100 NE7       30.11F FOG              
WORCESTER      FOG       29  28  96 NE8       30.05F VSB 1/4          
NANTUCKET      CLOUDY    43  43 100 SE9       30.10F FOG              
PROVIDENCE     FOG       38  38 100 N5        30.09F VSB 1/4          
HARTFORD       CLOUDY    34  34 100 N7        30.06F FOG              
ALBANY         CLOUDY    38  34  85 SE8       29.94F                  
NEW YORK CITY  FOG       36  35  96 NE9       29.99F VSB 1/8          
$$

ANZ081-ANZ082-ANZ150-NHZ014-MEZ023>029-230800-
COASTAL MARINE OBSERVATIONS
  
STATION/POSITION TIME  TEMP    WIND        PRES    WAVE
                       AIR SEA DIR/SP/G            HT/PER
                 (UTC) (F)     (DEG/KT/KT) (MB)    (FT/S)
MOUNT DESERT ROC 0600   35      90/ 22/ 25 1023.9F
MATINICUS ROCK   0600   37     100/ 23/ 24 1022.0F
ISLE OF SHOALS   0600   28      10/  3/  4 1020.9F
GEORGES BANK BUO 0550   41 54              1028.2    4/ 6
$$

.............KEY..............
   WCI - WIND CHILL
   TC  - TEMPERATURE IN CELSIUS
   VSB - VISIBILITY IN MILES
   HX  - HEAT INDEX
   FAIR- INDICATES FEW OR NO CLOUDS BELOW 12,000 FT, WITH NO 
         SIGNIFICANT WEATHER AND/OR OBSTRUCTIONS TO VISIBILITY.